Location: Breungeshain
(50.5000°N, 9.2000°E)
Time: 13:17:23
(UTC+00:00)

ISS - Visible Passes

Search period start: 25 February 2018 00:00
Search period end: 07 March 2018 00:00
Orbit: 402 x 407 km, 51.6° (Epoch: 25 February)

Date Brightness Start Highest point End Pass type
(mag) Time Alt. Az. Time Alt. Az. Time Alt. Az.
26 Feb -0.7 05:25:38 10° SSE 05:27:06 12° SE 05:28:34 10° ESE visible
28 Feb -1.6 05:16:04 10° SSW 05:18:43 23° SE 05:21:23 10° E visible
01 Mar -1.1 04:24:43 10° S 04:26:39 15° SE 04:28:35 10° ESE visible
02 Mar -2.7 05:07:19 10° SW 05:10:24 40° SSE 05:13:30 10° E visible
03 Mar -2.1 04:16:53 20° S 04:18:14 27° SE 04:21:03 10° E visible
04 Mar -1.2 03:26:47 16° SE 03:26:47 16° SE 03:28:21 10° E visible
04 Mar -3.6 04:59:26 14° WSW 05:02:08 67° SSE 05:05:24 10° ENE visible
05 Mar -3.2 04:09:14 40° S 04:09:52 46° SSE 04:13:02 10° E visible
06 Mar -1.5 03:18:58 22° ESE 03:18:58 22° ESE 03:20:34 10° E visible
06 Mar -3.9 04:51:36 18° WSW 04:53:54 86° NNW 04:57:12 10° ENE visible
